Date,TemperatureHighF,TemperatureAvgF,TemperatureLowF,DewpointHighF,DewpointAvgF,DewpointLowF,HumidityHigh,HumidityAvg,HumidityLow,PressureMaxIn,PressureMinIn,WindSpeedMaxMPH,WindSpeedAvgMPH,GustSpeedMaxMPH,PrecipitationSumIn
2013-1-1,38.9,35.1,25.3,31.0,26.4,15.4,78,70,61,29.99,29.80,12,1,12,0.02
2013-1-2,33.4,26.5,21.0,18.4,15.7,12.5,70,63,51,30.15,29.96,11,1,0,0.00
2013-1-3,32.8,27.4,20.8,21.5,17.9,16.3,84,68,53,30.16,30.03,13,1,13,0.00
2013-1-4,37.4,33.6,30.5,25.2,23.4,20.9,74,66,58,30.05,29.92,17,3,17,0.00
2013-1-5,43.5,34.4,28.2,26.6,23.3,20.1,82,64,49,30.25,29.98,11,1,0,0.00
2013-1-6,46.5,37.7,31.1,32.9,29.2,24.6,93,72,52,30.18,29.93,11,1,0,0.00
2013-1-7,46.4,37.0,26.5,32.2,27.4,22.1,87,69,44,30.35,30.01,9,1,0,0.00
2013-1-8,47.9,34.9,24.3,34.7,28.6,22.4,94,79,56,30.38,30.30,10,1,0,0.00
2013-1-9,45.6,36.5,24.9,39.0,32.4,23.7,97,85,71,30.35,30.09,12,1,12,0.00
2013-1-10,48.9,40.7,33.8,34.5,28.6,25.9,78,63,44,30.50,30.20,12,1,12,0.00
2013-1-11,42.7,37.0,30.8,42.2,33.2,26.8,99,86,73,30.50,30.06,4,0,0,0.48
2013-1-12,48.6,44.2,39.4,46.6,43.6,39.1,100,98,92,30.12,30.03,3,0,0,0.01
2013-1-13,47.8,45.4,43.2,47.8,45.3,43.2,100,100,99,30.11,29.94,1,0,0,0.01
2013-1-14,55.7,48.5,38.7,54.7,44.3,30.8,100,87,57,30.26,29.86,6,0,5,0.05
2013-1-15,38.7,36.4,33.5,36.1,31.2,28.2,96,82,70,30.31,30.17,6,0,1,0.10
2013-1-16,33.4,32.1,31.3,31.2,30.9,30.4,97,95,90,30.18,30.05,4,0,0,0.27
2013-1-18,32.4,32.3,32.3,25.1,25.0,24.9,74,74,74,30.04,30.04,3,0,0,0.00
2013-1-19,50.2,41.2,26.4,31.9,28.7,18.5,79,61,45,30.28,29.88,17,2,17,0.02
2013-1-20,52.9,41.7,25.2,33.5,26.2,10.0,87,57,27,30.03,29.65,23,3,23,0.00
2013-1-21,30.2,26.9,22.0,19.6,14.8,10.1,75,60,49,30.05,29.80,9,0,0,0.00
2013-1-22,25.1,18.4,11.9,12.4,3.3,-3.8,69,52,36,30.17,29.80,19,3,19,0.00
2013-1-23,19.3,12.8,8.5,5.3,-0.2,-4.1,80,56,40,30.22,30.13,14,1,14,0.00
2013-1-24,25.2,15.3,6.8,6.3,3.1,-0.3,90,61,34,30.39,30.09,17,1,17,0.00
2013-1-25,23.9,16.2,10.9,15.6,6.8,-0.8,93,67,46,30.39,30.03,7,0,0,0.00
2013-1-26,28.6,18.7,10.4,14.3,10.2,8.1,94,71,46,30.35,30.02,5,0,0,0.00
2013-1-27,35.7,23.7,12.3,16.4,12.2,8.6,86,63,38,30.50,30.35,8,0,0,0.00
2013-1-28,33.6,28.8,21.5,32.8,25.3,13.4,97,87,68,30.45,29.97,5,0,0,0.13
2013-1-29,53.1,41.6,33.6,46.0,39.7,32.8,99,93,74,30.12,29.97,5,0,0,0.09
2013-1-30,65.7,46.9,37.3,61.0,46.5,36.9,100,99,83,30.03,29.29,16,0,16,0.18
2013-1-31,60.7,43.7,28.2,60.0,32.3,11.7,100,66,40,29.75,28.99,30,6,30,0.80
2013-2-1,31.6,26.4,21.7,20.4,14.4,6.3,88,61,38,30.20,29.75,20,2,20,0.00
2013-2-2,27.9,22.0,15.6,20.4,12.1,7.7,92,67,46,30.26,30.01,15,1,15,0.00
2013-2-3,31.5,24.5,19.6,22.5,20.0,17.0,96,83,63,30.01,29.76,7,0,0,0.01
2013-2-4,29.5,25.2,20.6,21.4,13.4,10.6,86,61,46,29.94,29.78,16,2,16,0.00
2013-2-5,30.2,27.4,24.3,27.6,24.2,14.9,95,88,67,29.94,29.85,5,0,0,0.00
2013-2-6,40.1,31.0,23.8,28.0,23.0,12.2,98,74,50,30.32,29.88,15,1,15,0.06
2013-2-7,32.2,26.6,20.4,20.9,14.2,10.0,73,59,46,30.46,30.28,5,0,0,0.00
2013-2-8,33.4,31.1,27.7,32.3,28.7,20.9,98,91,71,30.28,29.62,11,1,0,0.00
2013-2-9,33.9,27.0,17.6,28.5,18.6,8.9,98,72,44,30.32,29.72,0,0,0,0.03
2013-2-10,39.3,24.6,11.4,23.1,14.3,7.8,88,67,36,30.44,30.28,2,0,0,0.01
2013-2-11,41.7,34.5,27.4,41.6,32.7,21.3,100,93,77,30.29,29.62,3,0,0,0.23
2013-2-12,44.6,39.6,32.6,39.6,28.7,25.3,100,65,52,29.94,29.69,15,3,15,0.04
2013-2-13,45.6,34.3,23.2,32.3,26.8,21.1,96,75,50,29.92,29.64,4,0,0,0.00
2013-2-14,46.2,36.6,30.0,34.1,29.8,26.1,99,78,48,29.95,29.67,9,0,0,0.09
2013-2-15,55.2,41.3,30.5,36.6,31.5,27.4,94,70,43,29.97,29.87,13,1,13,0.00
2013-2-16,40.0,34.3,28.8,34.5,27.2,15.0,97,76,56,29.94,29.71,10,0,0,0.05
2013-2-17,33.8,25.5,16.6,15.3,8.6,2.1,60,48,36,29.99,29.65,21,2,21,0.00
2013-2-18,36.2,24.9,15.1,15.3,8.9,2.8,64,51,34,30.22,29.98,13,2,13,0.00
2013-2-19,45.3,34.5,22.4,41.9,28.4,13.9,98,79,55,30.16,29.64,14,1,14,0.32
2013-2-20,36.4,27.8,23.7,26.5,15.5,11.5,67,59,50,29.95,29.69,16,2,16,0.00
2013-2-21,35.5,27.4,22.4,19.0,15.3,11.9,74,60,49,30.26,29.94,17,2,17,0.00
2013-2-22,37.7,29.6,20.2,31.3,22.9,15.2,88,76,59,30.37,30.22,5,0,0,0.00
2013-2-23,39.9,36.0,33.1,39.6,35.4,30.9,99,98,88,30.24,29.77,7,0,0,0.28
2013-2-24,48.0,37.5,31.0,40.2,32.2,23.4,100,82,61,29.94,29.72,13,1,13,0.00
2013-2-25,43.6,36.0,28.4,31.2,28.0,23.5,89,73,58,30.20,29.94,9,0,0,0.00
2013-2-26,44.0,35.8,26.9,35.2,30.7,24.8,96,82,65,30.25,29.82,12,1,12,0.13
2013-2-27,47.7,41.8,35.2,46.9,39.8,34.2,99,93,78,29.84,29.46,16,2,16,0.62
2013-2-28,47.6,41.6,35.6,38.7,34.7,29.6,96,77,58,29.59,29.50,10,1,0,0.00
2013-3-1,47.2,37.7,29.2,33.9,30.1,27.0,95,75,56,29.75,29.57,9,1,0,0.00
2013-3-2,40.4,34.4,29.7,29.7,25.9,23.0,86,71,59,29.75,29.67,8,1,0,0.00
2013-3-3,40.2,31.6,26.9,24.6,21.2,17.4,77,65,49,29.75,29.64,14,1,14,0.00
2013-3-4,42.7,33.2,25.8,25.1,21.3,16.8,75,62,46,29.89,29.74,15,1,15,0.00
2013-3-5,49.7,38.1,28.7,31.0,26.2,22.3,78,63,44,29.99,29.89,11,1,0,0.00
2013-3-6,42.9,39.1,35.7,35.7,32.3,28.5,86,76,67,29.93,29.80,24,3,24,0.00
2013-3-7,41.1,36.2,32.5,35.5,30.8,27.1,96,81,66,30.05,29.89,15,2,15,0.11
2013-3-8,40.6,34.3,30.0,37.1,31.9,28.8,97,91,75,30.17,29.97,12,0,12,0.32
2013-3-9,58.7,42.2,28.2,29.4,23.3,13.2,84,53,17,30.28,30.15,10,1,0,0.07
2013-3-10,51.2,38.2,27.1,38.4,31.5,21.9,93,78,57,30.35,30.25,6,0,0,0.00
2013-3-11,56.4,44.9,35.9,47.6,41.5,34.1,98,89,62,30.28,30.04,5,1,0,0.00
2013-3-12,58.1,51.0,41.6,57.2,49.5,37.6,99,95,81,30.04,29.62,13,1,13,0.99
2013-3-13,51.4,41.7,35.0,37.6,31.6,24.3,93,69,39,29.85,29.76,15,2,15,0.00
2013-3-14,42.7,34.3,29.1,26.7,15.8,9.4,69,48,28,29.93,29.81,18,2,18,0.00
2013-3-15,45.8,34.3,27.0,32.9,20.8,12.9,69,57,45,29.95,29.68,13,1,13,0.00
2013-3-16,40.7,34.0,30.5,31.7,27.5,22.1,94,78,56,29.88,29.74,5,0,0,0.04
2013-3-17,38.2,32.1,26.6,30.9,21.5,15.7,93,66,46,30.27,29.88,10,0,0,0.00
2013-3-18,35.7,29.4,23.8,31.5,21.0,11.8,97,72,54,30.37,29.97,9,0,0,0.00
2013-3-19,35.6,33.8,32.5,35.0,33.1,31.5,98,97,96,29.97,29.71,9,1,0,0.17
2013-3-25,37.7,36.5,35.4,35.6,34.5,33.5,96,92,86,29.57,29.43,6,0,0,0.12
2013-3-26,52.5,41.3,30.3,35.3,30.9,26.0,96,69,41,29.83,29.57,12,1,12,0.00
2013-3-27,55.6,42.4,32.6,32.9,29.1,24.3,80,61,33,29.95,29.82,13,1,13,0.00
2013-3-28,51.7,42.1,31.6,34.2,31.3,28.3,90,67,48,30.08,29.93,10,1,0,0.00
2013-3-29,55.9,43.5,33.1,32.6,30.5,28.3,84,62,37,30.11,30.02,10,1,0,0.00
2013-3-30,59.7,44.9,29.1,35.3,26.7,18.0,93,55,21,30.13,30.01,13,1,13,0.00
2013-3-31,56.7,43.9,29.8,44.2,33.9,22.3,98,70,42,30.08,29.64,7,1,0,0.17
2013-4-1,61.2,47.2,35.4,47.9,38.1,14.7,99,74,38,29.87,29.58,22,2,22,0.00
2013-4-2,44.4,36.9,30.0,20.6,15.6,11.7,55,42,29,30.05,29.87,19,2,19,0.00
2013-4-3,47.7,37.4,30.1,20.5,15.1,12.0,53,41,26,30.27,30.05,20,2,20,0.00
2013-4-4,55.2,41.0,27.3,27.4,21.7,15.8,69,47,32,30.35,30.03,11,1,0,0.00
2013-4-5,65.0,48.6,38.8,32.9,27.3,21.1,73,47,23,30.03,29.68,15,1,15,0.00
2013-4-6,54.4,42.4,32.4,28.7,18.7,9.9,70,41,19,30.26,29.96,11,1,0,0.00
2013-4-7,65.8,49.5,36.6,45.5,35.6,28.4,81,61,32,30.26,29.92,14,1,14,0.00
2013-4-8,77.3,59.7,43.8,48.7,44.9,39.6,94,62,28,30.03,29.92,10,1,0,0.00
2013-4-9,84.0,67.4,49.9,55.6,46.8,37.6,96,54,22,29.94,29.84,16,2,16,0.01
2013-4-10,79.4,64.0,53.9,58.7,52.3,41.6,98,68,44,29.90,29.75,5,1,0,0.61
2013-4-11,60.9,54.8,47.2,59.3,51.5,42.3,100,89,69,29.98,29.72,8,1,0,0.01
2013-4-12,47.2,42.5,40.6,42.3,41.0,39.6,100,95,79,29.97,29.67,11,1,0,0.71
2013-4-13,58.9,47.4,36.8,46.4,39.5,35.4,100,78,44,29.93,29.70,14,1,14,0.02
2013-4-14,59.9,50.9,41.1,41.1,35.3,30.2,89,57,36,30.17,29.92,13,1,13,0.00
2013-4-15,58.5,49.2,40.9,42.4,34.1,29.3,86,57,41,30.33,30.17,7,1,0,0.00
2013-4-16,69.5,57.1,44.9,57.8,50.5,42.1,92,79,59,30.32,30.06,10,1,0,0.00
2013-4-17,73.0,62.0,51.8,57.3,44.8,33.8,91,58,26,30.25,30.07,10,1,0,0.02
2013-4-18,57.1,51.2,44.0,52.5,45.9,41.1,98,83,60,30.29,30.05,7,1,0,0.01
2013-4-19,79.8,65.6,53.0,67.4,61.1,52.4,100,86,63,30.05,29.57,15,2,15,0.35
2013-4-20,59.0,52.0,44.3,55.6,37.0,26.0,95,60,34,30.26,29.64,19,3,19,0.20
2013-4-21,55.8,46.2,35.1,32.0,26.0,21.9,69,47,28,30.58,30.26,10,1,0,0.00
2013-4-22,53.9,44.8,33.9,38.4,34.1,29.8,91,67,44,30.62,30.44,9,1,0,0.00
2013-4-23,51.5,44.0,38.3,44.8,38.0,32.4,90,79,72,30.44,30.08,9,1,0,0.00
2013-4-24,74.5,55.4,34.9,56.2,47.1,34.1,99,76,50,30.08,29.75,12,1,0,0.00
2013-4-25,66.5,56.1,44.1,55.1,33.9,24.0,84,46,21,30.22,29.80,15,2,15,0.00
2013-4-26,67.0,53.6,38.8,39.5,32.7,24.1,85,49,22,30.36,30.22,10,1,0,0.00
2013-4-27,72.0,55.4,39.7,37.6,33.7,26.9,74,47,23,30.39,30.22,10,0,0,0.00
2013-4-28,72.9,57.1,39.8,46.6,39.0,33.4,87,54,32,30.27,30.13,8,1,0,0.00
2013-4-29,55.4,52.4,50.8,51.8,49.4,41.5,97,90,60,30.19,30.13,4,0,0,0.16
2013-4-30,67.8,55.7,44.4,50.8,42.1,28.3,98,66,26,30.29,30.16,8,0,0,0.01
2013-5-1,68.8,52.9,36.3,48.9,39.5,27.8,93,65,27,30.44,30.29,12,0,12,0.00
2013-5-2,75.8,57.5,39.0,49.5,44.6,38.3,99,67,33,30.43,30.27,7,0,0,0.00
2013-5-3,67.7,56.0,44.5,45.5,41.1,34.6,92,60,34,30.41,30.30,9,1,0,0.00
2013-5-4,71.5,53.5,39.3,50.2,43.5,38.5,99,73,37,30.33,30.19,10,0,0,0.00
2013-5-5,64.8,50.0,37.5,47.6,41.7,36.7,99,76,39,30.25,30.18,9,0,0,0.00
2013-5-6,71.2,54.5,40.0,57.4,48.6,39.0,97,82,57,30.23,30.11,7,0,0,0.00
2013-5-7,76.0,60.0,45.0,61.6,54.2,44.5,100,83,58,30.13,30.03,10,0,0,0.00
2013-5-8,65.8,60.1,52.2,64.4,59.4,51.7,100,97,92,30.05,29.92,11,0,0,1.75
2013-5-9,70.2,58.6,50.9,60.0,56.1,50.6,100,92,62,29.96,29.85,8,0,0,0.37
2013-5-10,80.5,65.8,52.1,62.9,57.8,52.0,100,79,43,29.96,29.84,9,0,0,0.00
2013-5-11,72.3,64.7,60.6,67.3,63.2,60.1,100,95,76,29.87,29.64,12,0,12,0.96
2013-5-12,67.0,59.5,49.0,60.6,43.8,28.8,100,61,30,29.90,29.62,19,2,19,0.00
2013-5-13,56.7,48.0,39.5,35.9,32.3,27.9,84,56,35,30.08,29.90,14,1,14,0.00
2013-5-14,63.1,48.9,35.4,36.2,30.2,-99.9,93,57,23,30.10,29.98,10,1,0,0.00
2013-5-15,75.3,59.5,43.3,60.0,49.4,33.4,83,70,56,30.03,29.63,11,0,0,0.00
2013-5-16,82.0,67.5,54.2,63.4,55.8,44.2,99,70,36,29.79,29.67,11,0,0,0.00
2013-5-17,74.8,63.3,52.5,47.9,44.1,40.3,77,51,30,30.16,29.79,10,1,0,0.00
2013-5-18,65.0,56.9,50.6,57.4,52.0,45.9,94,84,62,30.26,30.15,1,0,0,0.01
2013-5-19,57.5,56.5,54.8,57.2,56.1,54.2,100,98,93,30.26,30.13,4,0,0,0.47
2013-5-20,80.5,67.2,57.1,70.0,63.7,57.1,100,90,66,30.14,29.91,8,0,0,0.01
2013-5-21,88.4,74.0,61.8,75.3,68.6,61.6,100,85,60,29.93,29.79,10,1,0,0.00
2013-5-22,84.5,72.0,62.4,75.5,68.6,60.8,99,90,73,29.88,29.77,6,0,0,0.00
2013-5-23,79.0,71.1,67.0,75.2,69.4,67.0,100,95,77,29.84,29.69,13,0,13,2.25
2013-5-24,67.0,54.3,44.7,67.0,52.5,41.7,100,94,82,29.92,29.64,12,1,12,0.44
2013-5-25,57.2,49.6,44.1,46.7,42.9,38.6,95,78,58,29.98,29.87,19,2,19,0.07
2013-5-26,69.0,56.4,46.4,42.4,39.6,35.5,78,56,32,30.17,29.94,21,2,21,0.00
2013-5-27,75.3,59.5,41.1,47.6,41.9,35.3,91,57,30,30.21,30.08,10,1,0,0.00
2013-5-28,64.5,56.5,48.7,58.3,52.8,45.5,100,88,64,30.18,30.08,3,0,0,0.56
2013-5-29,86.3,69.4,57.3,73.2,64.4,57.0,100,86,57,30.09,29.94,9,1,0,0.01
2013-5-30,91.9,80.2,68.6,71.5,67.8,65.4,94,69,43,30.09,30.01,10,1,0,0.00
2013-5-31,94.0,80.3,67.8,75.5,67.9,61.4,94,69,41,30.08,29.93,9,0,0,0.00
2013-6-1,91.3,78.7,68.2,75.4,69.1,64.2,95,74,50,29.97,29.84,9,1,0,0.00
2013-6-2,87.5,77.9,70.1,74.7,70.6,67.9,95,79,58,29.86,29.72,12,1,12,0.02
2013-6-3,82.1,72.8,65.6,71.7,66.5,48.8,99,82,56,29.85,29.75,8,0,0,0.10
2013-6-4,77.3,65.0,54.7,50.4,47.0,44.1,74,54,33,30.07,29.84,10,1,0,0.00
2013-6-5,75.6,62.6,48.5,54.3,48.8,41.9,94,63,39,30.17,30.07,8,0,0,0.00
2013-6-6,72.3,61.3,51.9,60.7,56.9,51.1,99,87,55,30.10,29.96,12,0,12,0.26
2013-6-7,63.0,60.8,59.3,63.0,60.7,59.0,100,100,98,29.96,29.58,9,0,0,3.54
2013-6-8,76.9,66.6,56.1,67.2,62.6,56.1,100,88,68,30.01,29.56,9,1,0,0.08
2013-6-9,82.4,69.5,57.0,65.2,60.9,56.7,100,77,49,30.13,30.01,9,1,0,0.00
2013-6-10,68.5,65.2,63.9,67.3,64.1,62.1,100,96,92,30.11,29.76,13,0,13,0.99
2013-6-11,79.9,71.6,63.5,69.8,66.4,61.1,100,85,67,29.76,29.58,16,2,16,0.07
2013-6-12,79.4,70.2,62.0,63.2,58.6,55.0,86,68,48,29.80,29.67,13,1,13,0.00
2013-6-13,63.4,60.9,56.1,62.5,59.6,55.3,99,96,85,29.80,29.41,14,0,14,1.21
2013-6-14,75.5,60.3,52.9,63.5,56.1,51.6,99,87,60,29.86,29.50,8,0,0,0.24
2013-6-15,81.8,67.9,54.3,61.5,57.2,53.8,100,73,42,29.98,29.86,10,1,0,0.01
2013-6-16,82.3,69.4,56.5,68.8,61.5,55.1,97,78,49,29.95,29.74,12,1,12,0.00
2013-6-17,86.0,73.0,63.9,73.7,67.0,63.6,99,83,53,29.87,29.79,10,1,0,0.53
2013-6-18,84.8,69.4,62.3,72.7,65.9,62.0,99,90,59,29.85,29.75,10,0,0,0.34
2013-6-19,77.7,66.2,56.3,61.9,55.9,49.3,99,73,40,30.12,29.84,7,0,0,0.04
2013-6-20,81.8,68.2,54.0,64.4,58.5,53.3,100,74,44,30.22,30.12,8,0,0,0.00
2013-6-21,83.4,71.2,58.0,64.7,59.0,53.8,91,67,45,30.26,30.18,11,1,0,0.00
2013-6-22,85.1,71.9,57.2,70.1,62.5,54.6,93,73,52,30.21,30.07,12,1,12,0.00
2013-6-23,89.8,76.0,63.5,74.2,68.8,62.0,97,80,57,30.15,30.00,9,1,0,0.00
2013-6-24,92.5,78.7,69.8,75.2,70.8,65.0,99,79,50,30.02,29.90,11,1,0,0.05
2013-6-25,90.7,76.7,66.2,77.2,70.8,65.9,100,84,54,29.95,29.76,15,1,15,0.14
2013-6-26,86.3,77.2,70.3,74.9,70.2,67.0,99,80,59,29.81,29.73,9,1,0,0.00
2013-6-27,88.8,77.4,69.2,76.6,72.1,68.5,100,85,62,29.78,29.49,11,0,0,1.17
2013-6-28,86.8,76.8,70.6,74.4,71.4,67.5,100,85,58,29.51,29.42,10,1,0,0.01
2013-6-29,86.6,75.8,65.9,72.3,68.0,65.2,99,79,53,29.65,29.44,8,1,0,0.00
2013-6-30,85.9,74.8,67.2,78.2,71.9,66.0,98,91,74,29.86,29.65,4,0,0,0.25
2013-7-1,77.3,74.2,71.5,76.1,73.5,70.7,100,98,94,29.99,29.84,6,0,0,1.50
2013-7-2,85.7,76.9,72.5,79.7,74.5,71.7,100,93,77,30.13,29.99,8,0,0,0.04
2013-7-3,87.5,77.0,70.7,78.7,74.0,70.1,99,91,70,30.20,30.11,9,0,0,0.01
2013-7-4,90.0,80.5,73.7,78.9,75.3,72.5,100,85,64,30.21,30.10,10,1,0,0.01
2013-7-5,92.3,81.5,72.1,78.2,74.2,71.5,99,80,56,30.17,30.04,9,1,0,0.00
2013-7-6,92.9,83.1,74.6,77.9,74.8,72.6,95,78,55,30.09,29.98,10,1,0,0.00
2013-7-7,93.2,82.6,71.7,80.3,75.1,68.3,98,80,59,30.02,29.88,21,1,21,0.24
2013-7-8,88.3,77.8,68.0,75.1,71.1,67.7,100,82,58,30.00,29.92,9,1,0,0.00
2013-7-9,87.7,77.7,68.4,76.0,71.5,67.2,97,82,61,30.03,29.94,10,1,0,0.00
2013-7-10,87.0,78.6,71.4,78.8,74.0,70.2,98,87,67,29.97,29.76,13,1,13,0.07
2013-7-11,85.8,77.7,70.5,75.1,71.8,65.4,96,83,62,29.88,29.75,6,0,0,0.00
2013-7-12,77.0,71.7,67.7,71.6,67.8,63.6,98,88,75,30.05,29.88,7,0,0,0.12
2013-7-13,80.3,72.3,66.9,76.9,71.6,66.5,100,98,88,30.23,30.05,10,0,0,0.16
2013-7-14,91.0,81.2,74.0,78.3,75.0,72.0,100,83,58,30.30,30.19,8,1,0,0.01
2013-7-15,96.2,83.5,72.0,77.7,74.3,71.1,98,76,52,30.21,30.09,7,1,0,0.00
2013-7-16,94.0,82.1,70.3,75.3,71.6,68.5,97,73,46,30.16,30.08,7,0,0,0.00
2013-7-17,95.7,83.3,71.8,77.1,73.0,70.5,98,74,46,30.15,30.01,7,0,0,0.00
2013-7-18,96.8,86.2,74.9,78.2,74.8,70.6,92,71,44,30.02,29.90,11,1,0,0.00
2013-7-19,96.5,86.7,77.3,81.6,77.5,75.0,94,76,54,29.93,29.75,11,1,0,0.00
2013-7-20,92.5,83.0,76.2,78.4,74.0,68.6,87,75,52,29.80,29.68,11,1,0,0.00
2013-7-21,89.0,78.8,71.9,73.5,69.7,65.3,98,75,50,29.91,29.79,5,0,0,0.00
2013-7-22,87.2,76.5,70.3,77.3,72.6,66.9,99,88,71,29.91,29.74,9,0,0,0.32
2013-7-23,87.3,77.6,71.4,77.0,74.0,70.2,100,90,66,29.75,29.52,8,1,0,0.82
2013-7-24,81.5,73.7,64.8,70.4,65.9,55.7,99,78,55,29.89,29.57,9,1,0,0.00
2013-7-25,66.9,64.1,61.2,61.9,57.1,52.1,92,78,71,30.01,29.89,7,0,0,0.00
2013-7-26,83.8,72.1,63.4,68.3,62.7,60.7,92,74,51,30.00,29.95,8,0,0,0.00
2013-7-27,86.1,72.1,60.8,69.7,64.5,60.4,100,79,48,30.01,29.90,8,0,0,0.00
2013-7-28,79.9,70.9,65.2,73.9,68.2,63.3,100,92,76,29.94,29.85,6,0,0,1.70
2013-7-29,82.9,73.0,65.2,69.7,64.7,54.8,100,78,39,30.06,29.91,9,1,0,0.00
2013-7-30,81.3,69.1,57.7,65.4,59.7,56.1,96,74,50,30.13,30.06,10,0,0,0.00
2013-7-31,83.0,70.0,57.9,66.5,62.2,57.3,99,79,49,30.12,29.99,8,0,0,0.00
2013-8-1,70.7,67.5,65.6,68.9,66.5,63.9,100,97,90,29.99,29.79,5,0,0,0.69
2013-8-2,83.4,72.6,62.2,69.0,65.5,62.2,100,81,51,29.87,29.75,12,1,12,0.00
2013-8-3,77.5,69.6,64.8,69.9,65.2,60.8,97,86,73,29.87,29.80,9,1,0,0.10
2013-8-4,79.8,68.5,58.2,63.7,59.6,53.3,99,76,48,29.94,29.82,13,1,13,0.00
2013-8-5,78.9,66.0,54.4,58.3,53.8,47.5,95,68,39,30.02,29.94,8,1,0,0.00
2013-8-6,83.2,68.5,55.5,64.7,59.8,54.9,99,76,43,30.08,29.99,8,0,0,0.00
2013-8-7,80.5,70.5,64.1,70.9,67.1,62.9,98,89,71,30.09,30.01,5,0,0,0.20
2013-8-8,72.6,71.4,70.7,72.0,45.8,-99.9,100,99,98,29.98,29.96,1,0,1,1.09
2013-8-9,85.3,76.4,71.3,78.6,74.7,71.3,100,95,76,29.97,29.75,10,1,0,0.14
2013-8-10,83.0,74.3,66.1,73.1,67.4,64.0,100,81,56,29.97,29.82,8,1,0,0.00
2013-8-11,80.7,74.6,69.3,67.1,65.3,62.1,88,74,58,30.01,29.98,5,0,0,0.00
2013-8-12,84.3,72.7,66.7,70.1,66.7,64.2,98,83,53,29.99,29.88,5,0,0,0.08
2013-8-13,80.3,70.9,66.4,73.0,68.7,65.7,100,93,73,29.89,29.65,5,0,0,0.75
2013-8-14,75.0,65.0,55.4,66.1,55.1,49.9,99,72,53,30.01,29.72,14,1,14,0.00
2013-8-15,78.7,63.6,50.4,59.0,53.5,47.7,99,73,42,30.11,30.01,8,0,0,0.00
2013-8-16,73.3,59.0,53.2,60.5,55.7,52.6,100,90,54,30.13,30.09,4,0,0,0.00
2013-9-8,61.5,58.7,55.9,52.8,50.2,48.3,77,73,68,30.04,29.99,0,0,0,0.00
2013-9-9,73.1,60.9,47.5,61.3,53.5,45.9,96,78,56,30.20,30.04,5,0,0,0.00
2013-9-10,86.5,74.4,64.9,76.7,69.9,61.3,95,86,70,30.12,30.00,11,1,0,0.00
2013-9-11,93.7,81.1,71.7,81.0,75.5,71.1,99,84,63,30.07,29.93,9,1,0,0.00
2013-9-12,84.3,75.0,67.7,79.7,72.7,67.4,100,93,79,29.94,29.63,19,0,19,0.88
2013-9-13,67.7,67.2,66.4,67.6,67.0,66.0,100,99,99,29.66,29.60,2,0,0,0.04
2013-9-18,55.6,52.1,50.3,50.5,49.2,48.2,95,90,81,30.16,30.15,0,0,0,0.00
2013-9-19,76.2,59.0,44.4,58.6,51.6,43.9,100,80,45,30.16,30.03,8,0,0,0.00
2013-9-20,80.0,62.6,48.5,63.2,56.7,48.2,100,84,50,30.05,29.94,5,0,0,0.00
2013-9-21,78.2,64.1,52.2,69.3,60.0,51.9,100,88,60,29.97,29.66,9,0,0,0.00